Weather History for Reno - Stead, NV

Change the Weather History Date:

Wednesday, November 30, 2011

  Actual Average (KRNO) Record (KRNO)
Temperature  
Mean Temperature 31 °F 38 °F  
Max Temperature 41 °F 49 °F 68 °F (1940)
Min Temperature 21 °F 27 °F 8 °F (1922)
Degree Days  
Heating Degree Days 34 27  
Month to date heating degree days 668  
Since 1 July heating degree days 1103  
Cooling Degree Days 0 0  
Month to date cooling degree days 0  
Year to date cooling degree days 839  
Moisture  
Dew Point 17 °F    
Average Humidity 53    
Maximum Humidity 75    
Minimum Humidity 33    
Precipitation  
Precipitation 0.00 in 0.03 in 0.65 in (1982)
Month to date precipitation 0.82  
Year to date precipitation 6.37  
Snow  
Snow - 0.10 in 2.50 in (1982)
Month to date snowfall 3.1  
Since 1 July snowfall 3.5  
Since 1 September snowfall 3.5  
Snow Depth -    
Sea Level Pressure  
Sea Level Pressure 30.28 in    
Wind  
Wind Speed 13 mph ()    
Max Wind Speed 31 mph    
Max Gust Speed 43 mph    
Visibility 10.0 miles    
Events Rain    
T = Trace of Precipitation, MM = Missing Value Source: Averaged Metar Reports

Daily Weather History Graph

Daily Weather History Graph

Search for Another Location

Airport:

Trip Planner

Search our weather history database for the weather conditions in past years. The results will help you decide how hot, cold, wet, or windy it might be!

Date:

Astronomy

Nov. 30, 2011 Rise Set
Actual Time 7:00 AM PST 4:36 PM PST
Civil Twilight 6:30 AM PST 5:05 PM PST
Nautical Twilight 5:56 AM PST 5:39 PM PST
Astronomical Twilight 5:24 AM PST 6:11 PM PST
Moon 11:20 AM PST (11/30) 10:37 PM PST (11/30)
Length of Visible Light 10h 35m
Length of Day
9h 35m
Waxing Crescent, 34% of the Moon is Illuminated
Nov 30
Waxing Crescent
Dec 2
First Quarter
Dec 10
Full
Dec 17
Last Quarter
Dec 24
New

Hourly Weather History & Observations

Time (PST) Temp. Windchill Dew Point Humidity Pressure Visibility Wind Dir Wind Speed Gust Speed Precip Events Conditions
12:10 AM 26.6 °F 18.2 °F 15.8 °F 64% 30.22 in 10.0 mi NNW 8.1 mph - N/A   Clear
12:30 AM 24.8 °F - 15.8 °F 69% 30.21 in 10.0 mi Calm Calm - N/A   Clear
12:50 AM 24.8 °F - 14.0 °F 64% 30.20 in 10.0 mi Calm Calm - N/A   Clear
1:10 AM 26.6 °F 21.2 °F 15.8 °F 64% 30.19 in 10.0 mi NE 4.6 mph - N/A   Clear
1:30 AM 21.2 °F 13.6 °F 12.2 °F 68% 30.20 in 10.0 mi NNW 5.8 mph - N/A   Clear
1:50 AM 23.0 °F - 15.8 °F 74% 30.18 in 10.0 mi Calm Calm - N/A   Clear
2:15 AM 23.0 °F 15.8 °F 14.0 °F 68% 30.19 in 10.0 mi North 5.8 mph - N/A   Clear
2:35 AM 23.0 °F 17.0 °F 14.0 °F 68% 30.18 in 10.0 mi North 4.6 mph - N/A   Clear
2:55 AM 21.2 °F 14.9 °F 12.2 °F 68% 30.19 in 10.0 mi West 4.6 mph - N/A   Clear
3:15 AM 23.0 °F 15.8 °F 12.2 °F 63% 30.18 in 10.0 mi North 5.8 mph - N/A   Clear
3:35 AM 26.6 °F 21.2 °F 17.6 °F 69% 30.19 in 10.0 mi North 4.6 mph - N/A   Clear
3:55 AM 37.4 °F 27.5 °F 23.0 °F 56% 30.19 in 10.0 mi North 18.4 mph 26.5 mph N/A   Clear
4:15 AM 39.2 °F 30.2 °F 23.0 °F 52% 30.20 in 10.0 mi North 17.3 mph 24.2 mph N/A   Clear
4:35 AM 37.4 °F 27.8 °F 23.0 °F 56% 30.20 in 10.0 mi North 17.3 mph 24.2 mph N/A Rain Light Rain
5:15 AM 35.6 °F 27.5 °F 23.0 °F 60% 30.22 in 10.0 mi NNW 11.5 mph 25.3 mph N/A Rain Light Rain
5:35 AM 37.4 °F 26.6 °F 24.8 °F 60% 30.23 in 10.0 mi North 21.9 mph 27.6 mph N/A   Clear
5:55 AM 37.4 °F 32.1 °F 23.0 °F 56% 30.23 in 10.0 mi NNW 6.9 mph - N/A   Clear
6:15 AM 35.6 °F 25.2 °F 24.8 °F 65% 30.23 in 10.0 mi North 18.4 mph - N/A Rain Light Rain
6:35 AM 32.0 °F 22.5 °F 23.0 °F 69% 30.25 in 10.0 mi North 12.7 mph 17.3 mph N/A   Clear
7:15 AM 32.0 °F 19.5 °F 24.8 °F 75% 30.26 in 10.0 mi North 21.9 mph 25.3 mph N/A   Clear
7:55 AM 32.0 °F 17.4 °F 21.2 °F 64% 30.27 in 10.0 mi NW 31.1 mph 38.0 mph N/A   Clear
8:15 AM 32.0 °F 17.9 °F 21.2 °F 64% 30.28 in 10.0 mi NNW 28.8 mph 42.6 mph N/A   Clear
8:35 AM 32.0 °F 18.1 °F 21.2 °F 64% 30.31 in 10.0 mi NNW 27.6 mph 38.0 mph N/A   Clear
8:55 AM 33.8 °F 21.3 °F 19.4 °F 56% 30.31 in 10.0 mi NNW 24.2 mph 33.4 mph N/A   Clear
9:15 AM 35.6 °F 24.5 °F 19.4 °F 52% 30.33 in 10.0 mi North 20.7 mph 33.4 mph N/A   Clear
9:55 AM 37.4 °F 27.2 °F 17.6 °F 45% 30.34 in 10.0 mi North 19.6 mph 26.5 mph N/A   Clear
10:55 AM 37.4 °F 28.5 °F 15.8 °F 41% 30.31 in 10.0 mi NNE 15.0 mph 19.6 mph N/A   Clear
11:15 AM 37.4 °F 28.9 °F 15.8 °F 41% 30.30 in 10.0 mi North 13.8 mph 20.7 mph N/A   Partly Cloudy
11:35 AM 39.2 °F 29.8 °F 15.8 °F 39% 30.29 in 10.0 mi North 18.4 mph 21.9 mph N/A   Partly Cloudy
11:55 AM 39.2 °F 29.8 °F 17.6 °F 42% 30.29 in 10.0 mi North 18.4 mph 24.2 mph N/A   Mostly Cloudy
12:15 PM 41.0 °F 32.2 °F 15.8 °F 36% 30.28 in 10.0 mi North 18.4 mph 25.3 mph N/A   Mostly Cloudy
12:35 PM 39.2 °F 30.8 °F 15.8 °F 39% 30.28 in 10.0 mi North 15.0 mph 19.6 mph N/A   Mostly Cloudy
12:55 PM 41.0 °F 34.3 °F 17.6 °F 39% 30.28 in 10.0 mi North 11.5 mph 20.7 mph N/A   Overcast
1:15 PM 41.0 °F 34.3 °F 17.6 °F 39% 30.27 in 10.0 mi NNE 11.5 mph 18.4 mph N/A   Overcast
1:35 PM 41.0 °F 31.9 °F 15.8 °F 36% 30.26 in 10.0 mi NNE 19.6 mph 25.3 mph N/A   Mostly Cloudy
1:55 PM 41.0 °F 30.9 °F 15.8 °F 36% 30.25 in 10.0 mi North 24.2 mph 32.2 mph N/A   Partly Cloudy
2:15 PM 41.0 °F 31.1 °F 14.0 °F 33% 30.25 in 10.0 mi North 23.0 mph 29.9 mph N/A   Partly Cloudy
2:35 PM 41.0 °F 31.4 °F 14.0 °F 33% 30.25 in 10.0 mi North 21.9 mph 32.2 mph N/A   Partly Cloudy
2:55 PM 41.0 °F 32.2 °F 15.8 °F 36% 30.26 in 10.0 mi NNE 18.4 mph 29.9 mph N/A   Scattered Clouds
3:15 PM 41.0 °F 30.2 °F 15.8 °F 36% 30.27 in 10.0 mi North 27.6 mph 31.1 mph N/A   Mostly Cloudy
3:35 PM 39.2 °F 28.3 °F 15.8 °F 39% 30.28 in 10.0 mi North 25.3 mph 29.9 mph N/A   Mostly Cloudy
3:55 PM 37.4 °F 26.4 °F 15.8 °F 41% 30.28 in 10.0 mi North 23.0 mph 39.1 mph N/A   Partly Cloudy
4:15 PM 37.4 °F 27.5 °F 15.8 °F 41% 30.29 in 10.0 mi North 18.4 mph 25.3 mph N/A   Scattered Clouds
4:35 PM 37.4 °F 26.1 °F 15.8 °F 41% 30.29 in 10.0 mi North 24.2 mph 32.2 mph N/A   Overcast
4:55 PM 37.4 °F 27.5 °F 17.6 °F 45% 30.29 in 10.0 mi North 18.4 mph 25.3 mph N/A   Overcast
5:15 PM 35.6 °F 25.9 °F 17.6 °F 48% 30.30 in 10.0 mi North 16.1 mph 23.0 mph N/A   Mostly Cloudy
5:35 PM 35.6 °F 26.6 °F 17.6 °F 48% 30.31 in 10.0 mi North 13.8 mph 20.7 mph N/A   Overcast
6:15 PM 35.6 °F 24.2 °F 15.8 °F 44% 30.32 in 10.0 mi North 21.9 mph 33.4 mph N/A   Overcast
6:35 PM 35.6 °F 23.7 °F 15.8 °F 44% 30.32 in 10.0 mi North 24.2 mph 34.5 mph N/A   Overcast
7:15 PM 33.8 °F 20.5 °F 17.6 °F 52% 30.33 in 10.0 mi North 27.6 mph 32.2 mph N/A   Partly Cloudy
7:35 PM 33.8 °F 20.8 °F 17.6 °F 52% 30.33 in 10.0 mi North 26.5 mph 36.8 mph N/A   Scattered Clouds
7:55 PM 33.8 °F 20.5 °F 17.6 °F 52% 30.33 in 10.0 mi North 27.6 mph 35.7 mph N/A   Mostly Cloudy
8:15 PM 33.8 °F 21.9 °F 17.6 °F 52% 30.33 in 10.0 mi North 21.9 mph 32.2 mph N/A   Mostly Cloudy
8:35 PM 32.0 °F 19.8 °F 17.6 °F 55% 30.34 in 10.0 mi North 20.7 mph 26.5 mph N/A   Partly Cloudy
8:55 PM 32.0 °F 19.2 °F 15.8 °F 51% 30.34 in 10.0 mi North 23.0 mph 28.8 mph N/A   Clear
9:15 PM 32.0 °F 18.1 °F 15.8 °F 51% 30.33 in 10.0 mi North 27.6 mph 35.7 mph N/A   Clear
9:35 PM 32.0 °F 19.8 °F 15.8 °F 51% 30.34 in 10.0 mi NNW 20.7 mph 26.5 mph N/A   Clear
9:55 PM 32.0 °F 19.8 °F 15.8 °F 51% 30.34 in 10.0 mi NNW 20.7 mph 25.3 mph N/A   Clear
10:15 PM 30.2 °F 16.8 °F 17.6 °F 60% 30.35 in 10.0 mi NNW 23.0 mph 27.6 mph N/A   Clear
10:35 PM 30.2 °F 17.8 °F 15.8 °F 55% 30.36 in 10.0 mi NNW 19.6 mph 26.5 mph N/A   Clear
10:55 PM 28.4 °F 17.0 °F 15.8 °F 59% 30.37 in 10.0 mi NNW 15.0 mph 21.9 mph N/A   Partly Cloudy
11:15 PM 28.4 °F 18.0 °F 15.8 °F 59% 30.37 in 10.0 mi NNW 12.7 mph - N/A   Scattered Clouds
11:35 PM 28.4 °F 18.5 °F 15.8 °F 59% 30.37 in 10.0 mi North 11.5 mph 20.7 mph N/A   Partly Cloudy
11:55 PM 28.4 °F 22.2 °F 15.8 °F 59% 30.39 in 10.0 mi NNE 5.8 mph - N/A   Mostly Cloudy